Location: Caltech
(34.1382°N, 118.1253°W)
Time: 06:41:09
(UTC-07:00)

Cosmos 1408 Rocket - Visible Passes

Search period start: 01 September 2014 00:00
Search period end: 11 September 2014 00:00
Orbit: 602 x 633 km, 82.6° (Epoch: 31 August)

Date Brightness Start Highest point End Pass type
(mag) Time Alt. Az. Time Alt. Az. Time Alt. Az.
01 Sep 5.0 19:38:59 10° NNE 19:41:56 18° ENE 19:44:51 10° ESE visible
01 Sep 5.4 21:16:03 10° NNW 21:19:45 28° W 21:23:23 10° SSW visible
02 Sep 4.2 19:55:09 10° NNE 19:59:05 34° E 20:02:59 10° SE visible
02 Sep 6.4 21:34:09 10° NW 21:36:33 15° W 21:38:56 10° WSW visible
03 Sep 3.4 20:11:50 10° N 20:16:09 69° E 20:20:24 10° SSE visible
04 Sep 4.1 20:28:53 10° NNW 20:33:07 57° W 20:37:18 10° S visible
05 Sep 5.6 20:46:19 10° NNW 20:49:59 28° W 20:53:39 10° SSW visible
06 Sep 6.5 21:04:27 10° NW 21:06:47 14° W 21:09:06 10° WSW visible
07 Sep 3.5 19:42:04 10° N 19:46:23 71° E 19:50:39 10° SSE visible
08 Sep 4.3 19:59:08 10° NNW 20:03:20 55° W 20:07:32 10° S visible
09 Sep 5.7 20:16:34 10° NNW 20:20:13 27° W 20:23:51 10° SSW visible
10 Sep 6.7 20:34:45 10° NW 20:37:00 14° W 20:39:16 10° WSW visible
